{"data":{"norad_id":52912,"intl_designator":"2022-069A","name":"GAOFEN-12 03","alt_names":[],"object_type":"PAYLOAD","status":"ACTIVE","operator":null,"country":"PRC","launch_date":"2022-06-27","launch_site_code":"JSC","launch_vehicle":null,"mission":null,"orbit_class":"UNKNOWN","rcs_meters":null,"size_class":null,"mass_kg":null,"dimensions":null,"purposes":["earth_obs"],"wikipedia_slug":null,"has_3d_model":false,"image_url":null,"decayed_at":null,"tle_current":{"epoch":"2026-09-20T04:08:04.222176Z","epoch_age_seconds":46671,"freshness":"FRESH","line1":"1 52912U 22069A   26263.17227109  .00000353  00000+0  53155-4 0  9999","line2":"2 52912  97.8116 148.5805 0001294 112.8418 247.2931 14.80156608228666","mean_motion":14.80156608,"eccentricity":0.0001294,"inclination_deg":97.8116,"raan_deg":148.5805,"arg_perigee_deg":112.8418,"mean_anomaly_deg":247.2931,"bstar":5.3155e-5,"rev_number":22866,"period_min":97.287002754779,"perigee_km":627.92314148527,"apogee_km":629.73654450424,"semimajor_km":7006.9668429948,"source":"CELESTRAK","updated_at":"2026-09-20T09:00:33.977974Z"}}}